Lapse_Rate
7.4 7.3 7.2 7.1 6.9 6.9 6.9 6.9 7.0 7.0 7.1 7.3 7.5 7.5 7.5 7.5 7.4 7.4 7.3 7.2 7.3 7.3 7.4 7.6 7.6 7.4 7.4 7.2 7.1 6.8 6.5 6.7 6.8 6.6 6.6 6.2 6.0 6.0 6.0 6.1 6.0 5.9 6.0 6.1 6.1
7.3 7.3 7.1 7.0 7.0 7.0 7.0 6.9 7.1 7.1 7.2 7.5 7.5 7.5 7.6 7.5 7.5 7.4 7.4 7.3 7.4 7.4 7.5 7.6 7.6 7.4 7.4 7.3 7.0 6.7 6.6 7.0 6.8 6.6 6.6 6.3 6.1 6.0 5.9 5.9 6.1 6.0 6.1 6.1 6.2
7.2 7.1 7.1 7.1 7.1 7.0 7.1 7.0 7.1 7.2 7.4 7.5 7.6 7.5 7.6 7.6 7.5 7.5 7.4 7.3 7.3 7.4 7.4 7.5 7.6 7.4 7.3 7.2 7.1 6.8 6.9 7.1 7.0 6.7 6.6 6.4 6.4 5.9 6.1 6.4 6.6 6.2 5.9 6.0 6.5
7.4 7.3 7.2 7.1 7.0 7.1 6.9 7.0 7.1 7.2 7.4 7.4 7.5 7.5 7.5 7.5 7.5 7.5 7.5 7.4 7.4 7.4 7.4 7.4 7.6 7.4 7.3 7.0 7.1 6.8 7.0 6.9 6.9 6.7 6.6 6.5 6.5 6.2 6.2 6.8 6.3 6.3 6.2 6.4 6.8
7.3 7.2 7.1 7.0 6.9 6.8 6.7 6.8 7.0 7.1 7.2 7.3 7.4 7.3 7.4 7.4 7.4 7.5 7.4 7.4 7.3 7.2 7.2 7.3 7.4 7.3 7.4 7.2 7.1 6.8 7.2 7.0 7.0 7.0 6.7 6.5 6.6 6.5 6.7 6.7 6.4 6.4 6.5 6.6 6.8
7.2 7.2 7.0 6.9 6.6 6.5 6.5 6.7 6.8 7.0 7.2 7.3 7.3 7.4 7.3 7.3 7.2 7.3 7.4 7.3 7.2 7.2 7.2 7.2 7.3 7.3 7.1 7.0 7.0 7.1 7.2 7.2 7.2 7.2 7.0 6.8 6.8 6.7 7.6 7.6 6.9 6.6 6.7 6.7 6.9
7.1 6.9 6.6 6.3 6.3 6.3 6.3 6.5 6.8 7.0 7.2 7.4 7.5 7.5 7.4 7.5 7.4 7.4 7.4 7.4 7.3 7.3 7.3 7.3 7.3 7.2 7.2 7.1 7.0 7.0 7.0 7.1 7.4 7.4 7.2 6.9 6.9 7.4 7.3 7.0 7.0 6.8 6.9 6.9 7.0
6.8 6.7 6.5 6.4 6.4 6.5 6.7 6.9 7.1 7.3 7.5 7.7 7.7 7.7 7.6 7.5 7.5 7.5 7.4 7.4 7.4 7.3 7.3 7.3 7.2 7.1 7.1 6.8 6.5 6.6 6.6 7.2 7.6 7.4 6.8 6.2 6.5 7.5 6.6 6.5 6.9 6.9 6.8 6.9 6.9
6.5 6.6 6.8 6.9 7.0 7.0 7.1 7.3 7.5 7.6 7.7 7.7 7.7 7.6 7.6 7.5 7.5 7.5 7.4 7.4 7.2 7.1 6.9 6.8 6.8 6.9 6.7 6.5 6.4 6.5 6.5 6.5 6.7 6.9 6.5 6.2 5.9 7.3 6.7 6.5 6.5 6.6 6.6 6.7 6.8
6.3 6.6 6.9 7.0 7.2 7.3 7.4 7.4 7.5 7.5 7.5 7.6 7.5 7.5 7.4 7.3 7.2 7.0 7.0 7.0 6.9 6.9 6.7 6.6 6.5 6.6 6.6 6.4 6.1 5.9 5.6 5.7 5.9 6.6 6.2 5.7 5.4 6.5 6.8 6.1 6.1 6.5 6.7 6.8 6.9
6.5 6.5 6.4 6.5 6.5 6.6 6.6 6.8 6.9 7.0 7.0 7.1 6.9 6.7 6.7 6.6 6.6 6.6 6.5 6.4 6.4 6.3 6.2 6.3 6.4 6.8 6.3 6.0 5.8 5.8 5.7 5.6 6.7 6.9 5.7 5.9 5.5 5.8 6.7 6.3 6.5 6.7 6.8 6.8 6.9
6.5 6.4 6.4 6.4 6.5 6.6 6.7 6.8 6.8 6.7 6.8 6.7 6.6 6.5 6.5 6.4 6.3 6.1 6.1 6.1 6.2 6.1 6.0 5.9 6.5 6.4 6.2 5.9 5.9 5.9 5.6 5.9 6.1 6.5 5.7 5.5 5.9 6.3 6.6 7.0 6.8 7.0 7.3 7.4 7.4
6.2 6.2 6.2 6.4 6.4 6.5 6.5 6.4 6.4 6.4 6.4 6.4 6.4 6.2 6.1 6.3 6.3 6.0 5.9 5.9 6.0 6.0 5.6 5.6 6.2 6.2 5.9 5.9 6.0 5.6 5.5 5.8 5.3 5.7 6.1 5.8 5.9 6.1 6.3 6.6 7.2 7.2 7.4 7.6 7.6
6.0 6.1 6.1 6.1 6.1 6.1 6.1 6.1 6.1 6.1 6.0 5.6 5.6 5.6 5.7 5.8 5.8 5.7 5.6 5.6 5.6 5.4 5.3 5.7 6.1 5.8 5.6 5.8 5.8 5.2 6.0 5.6 5.5 5.0 4.9 4.9 4.5 5.0 5.7 6.1 6.4 6.8 7.2 7.2 7.2
6.1 5.9 5.9 5.8 5.8 5.8 5.8 5.8 5.9 6.0 5.2 5.4 5.4 5.3 5.3 5.4 5.2 5.3 5.3 5.4 5.2 4.9 5.0 5.5 5.3 5.2 5.3 5.7 5.3 5.0 5.0 4.9 4.8 4.9 4.4 4.4 4.3 5.8 5.7 5.6 5.9 6.0 6.1 6.5 6.7
6.1 6.0 5.9 5.9 5.8 5.9 5.8 5.9 5.7 5.7 5.1 5.0 5.1 5.1 5.1 5.2 5.2 5.2 5.1 5.0 4.9 4.9 4.9 5.2 5.0 5.1 5.2 5.2 5.2 5.1 4.6 4.5 4.7 4.8 4.3 5.1 5.2 5.6 5.6 5.7 6.0 6.1 6.4 6.5 6.6
6.4 6.3 6.2 6.1 6.0 5.9 5.8 5.6 5.6 5.5 4.8 4.8 4.8 4.8 4.8 4.9 4.8 4.7 4.6 4.4 4.2 4.1 4.2 4.6 4.9 4.8 4.9 5.1 4.9 4.7 4.6 4.3 4.6 4.0 4.8 5.6 5.3 4.9 5.6 5.9 5.7 5.5 5.5 6.0 6.6
6.3 6.3 6.1 6.1 5.9 5.8 5.7 5.7 5.5 4.8 5.0 4.9 4.9 4.9 4.9 4.9 4.5 4.4 4.4 4.2 4.0 4.1 4.0 3.8 4.1 4.5 4.6 4.3 3.7 4.4 4.7 4.8 5.0 5.2 5.5 5.1 4.9 4.9 5.3 5.5 5.3 5.2 5.2 5.5 5.6
6.2 6.1 6.1 5.9 5.8 5.6 5.4 5.3 5.1 4.9 4.8 5.0 4.8 4.8 4.3 4.2 4.1 4.1 3.9 3.6 3.4 3.4 3.5 3.4 3.5 4.1 4.4 4.3 4.2 4.0 4.3 4.4 4.8 4.6 5.1 4.6 4.7 4.7 5.1 5.6 5.7 5.5 5.7 5.9 6.2
6.2 6.2 6.0 5.8 5.7 5.6 5.5 5.2 4.8 4.7 4.4 4.4 4.4 4.2 3.9 4.0 3.8 3.8 3.6 3.2 2.9 3.0 2.9 2.8 2.1 3.3 3.4 3.5 3.9 4.0 4.0 3.8 4.9 5.2 5.3 5.2 5.3 5.1 5.2 5.4 5.5 5.7 5.8 5.9 6.4
6.3 6.2 5.8 5.7 5.7 5.5 5.3 5.1 4.7 4.3 4.0 3.9 3.7 3.5 3.4 3.1 2.8 2.6 3.1 2.8 2.9 3.1 2.9 2.9 2.6 2.9 3.3 2.9 2.8 2.7 2.8 3.5 4.0 5.1 6.6 5.7 5.0 5.1 5.3 5.0 5.1 5.3 5.4 4.8 5.0
6.3 6.2 6.1 6.1 5.6 5.5 5.2 4.7 4.4 4.2 3.9 3.7 3.6 3.3 2.8 2.7 2.8 2.6 2.6 2.5 2.6 2.6 2.5 2.1 2.0 1.6 1.9 2.8 2.6 2.1 2.7 2.7 3.8 4.0 4.2 6.0 5.3 4.7 5.6 6.4 6.5 6.2 6.1 5.9 6.2
6.2 6.0 5.9 5.7 5.5 5.5 5.1 4.8 4.6 4.2 3.9 3.6 3.4 3.1 2.8 2.8 2.8 2.4 2.4 2.2 2.1 2.3 2.6 2.1 1.5 1.4 2.2 2.4 2.4 2.3 2.4 2.6 3.9 5.6 5.3 7.2 7.1 7.5 7.2 7.4 5.9 5.6 6.2 6.9 7.5
5.8 5.8 5.6 5.5 5.4 5.2 4.9 4.4 4.3 4.1 3.9 3.6 3.6 3.4 3.0 2.8 2.6 2.5 2.3 2.3 2.5 2.8 2.6 2.3 1.7 1.9 1.9 1.9 1.8 1.6 2.0 2.4 4.3 5.5 7.0 7.3 7.8 7.9 7.9 6.7 5.9 6.0 6.1 6.3 6.4
5.7 5.5 5.2 5.0 4.9 4.8 4.5 4.2 4.0 3.9 3.6 3.4 3.0 2.8 2.5 2.2 2.0 2.2 2.1 2.1 2.4 2.3 2.3 1.6 1.3 1.7 1.7 1.8 1.8 2.7 2.7 5.6 7.4 7.9 7.5 8.1 7.9 7.9 7.4 7.3 7.3 6.4 6.3 5.9 7.1
5.6 5.5 5.2 5.0 4.7 4.6 4.2 4.0 3.9 3.8 3.7 3.6 3.1 2.9 2.7 2.3 1.9 1.7 1.9 2.2 1.8 1.8 1.6 1.0 1.1 1.1 1.3 2.0 3.0 3.1 6.0 7.7 8.4 8.3 8.0 7.9 7.7 7.7 7.5 7.4 7.7 7.5 7.7 7.5 7.1
5.7 5.6 5.3 4.9 4.6 4.6 4.3 3.9 3.7 3.8 3.8 3.3 2.8 2.6 2.5 2.6 2.4 2.5 2.4 2.4 1.9 1.9 2.0 1.2 1.1 1.2 1.4 2.8 3.7 5.2 7.8 8.1 8.2 8.2 8.1 7.7 7.8 7.6 7.7 7.7 7.4 7.8 7.7 7.6 7.4
Wind_Speed
3 2 1 2 2 4 5 6 7 7 7 8 9 10 11 12 13 0 2 2 1 6 7 4 3 4 2 3 2 2 2 4 5 6 4 4 7 3 1 4 4 7 3 1 7
6 4 4 1 1 2 3 4 5 5 6 7 8 9 10 10 2 2 5 2 2 7 4 6 4 5 3 2 2 3 3 8 4 4 4 4 7 7 5 6 5 5 7 2 13
5 4 2 1 2 3 2 3 4 3 5 6 8 9 9 4 1 3 4 3 3 5 2 1 1 2 2 1 0 2 4 3 3 6 3 2 2 5 6 6 8 13 12 11 16
6 5 4 3 3 4 3 3 5 4 6 7 8 10 8 1 3 2 2 4 3 2 1 2 4 3 2 3 2 3 4 3 4 2 1 3 0 4 10 11 3 11 3 13 18
7 7 6 6 6 6 6 6 7 7 7 8 8 9 2 3 2 2 3 2 2 2 3 2 3 2 1 2 3 2 3 3 7 7 5 2 6 7 6 14 7 2 6 15 18
7 7 7 7 7 7 7 7 7 8 8 9 9 7 2 2 3 2 3 1 2 3 2 2 2 2 1 2 1 2 4 7 5 5 4 5 6 3 4 7 11 10 12 14 19
10 8 8 8 9 9 8 8 8 8 8 8 6 2 3 4 2 2 1 1 1 2 2 1 1 2 1 3 3 3 6 6 5 4 6 4 10 15 11 6 10 13 16 15 18
11 11 10 10 9 9 9 9 8 9 7 4 4 1 3 2 4 1 1 1 2 2 2 1 1 1 1 2 4 4 1 5 3 2 3 6 15 13 6 9 17 16 14 13 16
13 12 11 10 10 9 10 13 9 5 2 2 2 3 5 4 2 2 1 2 1 2 4 2 3 2 3 2 3 4 5 4 9 3 3 7 8 5 5 3 12 13 14 13 15
14 12 11 10 10 10 13 3 3 5 2 1 1 2 3 2 2 1 1 2 5 3 4 6 4 2 2 3 5 3 4 4 6 2 3 8 17 20 17 10 16 18 16 13 16
15 14 13 13 12 9 4 2 4 3 3 0 1 0 2 6 2 4 1 3 3 6 2 3 1 6 9 6 3 2 4 10 16 12 9 18 22 20 22 10 15 17 18 17 20
18 16 14 13 12 2 2 5 3 3 2 1 3 4 4 1 4 2 2 2 2 2 1 3 8 6 3 4 6 7 9 14 12 11 7 12 26 20 18 25 20 20 20 21 20
17 16 15 15 3 2 3 2 5 1 3 4 1 1 2 4 3 4 5 2 2 3 4 5 1 6 4 3 5 4 7 8 13 12 8 11 19 10 8 15 16 16 21 20 19
15 13 13 13 3 0 3 4 4 0 4 7 5 3 1 2 1 0 3 2 0 2 4 5 3 2 3 7 7 6 12 15 11 5 6 5 16 7 11 16 5 12 16 17 16
13 11 8 5 6 3 2 5 1 3 3 4 3 2 3 1 3 5 0 1 4 4 3 6 2 3 4 6 5 7 1 4 3 5 6 6 6 19 5 9 12 12 12 11 15
11 6 4 3 3 2 10 3 3 5 1 4 5 6 6 5 5 6 3 1 1 1 3 7 3 4 5 2 6 2 2 1 2 2 8 10 10 27 6 3 6 7 7 9 10
9 9 5 2 2 13 4 3 4 5 5 7 4 6 4 6 6 7 5 6 4 7 4 5 4 3 2 1 4 2 3 4 3 3 7 3 9 21 7 18 7 10 19 21 21
6 4 5 7 10 6 3 4 6 0 2 3 4 5 4 7 4 8 4 4 9 5 3 4 5 2 2 3 5 6 4 2 7 8 14 6 12 12 2 7 13 13 15 17 19
4 3 3 8 12 1 5 6 2 1 3 5 5 5 4 4 5 7 5 3 6 8 4 6 5 6 19 6 5 3 1 4 8 18 13 13 18 14 17 9 17 19 20 21 18
2 3 3 22 12 4 5 5 3 2 3 2 2 3 3 6 6 6 3 4 3 8 3 2 12 9 3 6 6 5 5 6 3 16 22 18 22 16 16 17 22 27 27 24 20
3 3 3 24 3 6 4 2 3 2 5 4 1 3 3 4 3 2 3 7 7 8 3 3 4 8 13 4 9 11 10 10 10 10 15 20 11 2 19 18 24 32 27 22 19
3 3 5 7 4 2 3 2 3 4 7 5 4 4 3 4 2 2 2 4 8 6 5 5 5 11 20 19 18 11 4 7 5 12 16 13 19 22 19 30 33 29 25 26 22
3 1 4 4 4 3 3 3 4 6 5 5 4 5 4 2 4 2 2 6 8 10 7 4 3 10 7 2 2 9 17 17 15 9 17 15 14 23 32 27 22 23 26 22 24
3 3 5 5 2 5 2 3 3 5 4 4 4 6 5 4 3 4 4 4 15 11 18 10 5 11 12 17 15 18 20 19 18 12 17 19 29 27 30 28 19 18 19 20 18
4 1 1 3 5 4 3 2 2 4 5 8 4 7 5 3 3 3 2 14 5 10 6 2 6 14 16 18 20 22 22 25 21 21 18 25 24 26 20 21 22 16 18 18 19
4 3 3 2 1 3 4 4 3 3 4 3 4 3 2 4 7 15 12 8 10 3 9 3 14 14 19 19 20 19 23 22 20 20 17 18 19 9 13 20 19 21 19 20 21
1 2 3 3 2 3 0 2 2 1 1 2 2 3 6 10 6 7 10 15 16 17 18 9 8 8 13 15 12 11 15 10 20 20 17 15 18 9 19 23 21 20 20 19 19
Wind_Direction
125 152 163 219 270 286 295 306 312 318 325 324 325 327 326 336 327 60 279 214 162 339 340 300 45 357 40 73 63 132 96 221 216 178 230 160 198 170 70 154 207 202 205 315 154
92 108 109 128 222 263 273 300 304 318 322 316 320 320 324 342 354 310 267 223 33 3 42 31 17 353 38 48 35 100 173 217 207 194 222 199 206 176 174 195 224 244 224 138 158
43 61 98 164 206 240 258 287 285 307 310 310 314 315 321 342 40 325 335 151 65 41 80 99 65 41 33 353 106 147 227 221 256 228 226 252 235 195 197 218 208 211 214 170 175
5 356 351 324 308 294 285 285 286 306 308 315 320 321 322 156 124 322 107 102 69 49 8 26 45 49 33 317 3 304 265 250 293 284 165 239 176 243 209 234 281 242 150 166 184
357 349 345 337 330 322 324 314 313 313 314 323 320 327 320 33 270 326 123 81 54 56 58 54 68 96 349 309 328 212 279 256 267 281 264 299 248 244 249 253 262 17 177 190 197
355 349 342 335 334 332 330 321 319 318 317 321 318 327 53 59 341 351 147 77 67 65 46 42 106 154 145 275 202 312 272 277 279 246 250 234 252 208 231 255 244 227 221 213 209
10 360 348 344 336 331 323 319 316 310 310 309 321 339 65 218 335 270 228 136 107 98 82 79 138 108 144 306 325 304 307 307 233 237 237 168 270 243 242 206 236 230 237 227 222
8 2 356 349 338 325 321 314 306 296 290 288 333 23 246 256 315 219 185 58 87 106 108 349 108 127 165 311 354 352 36 330 302 151 268 176 266 266 229 213 247 246 252 247 235
4 1 353 344 334 328 325 317 305 287 209 124 32 89 297 316 32 343 324 104 57 56 41 74 63 66 31 80 338 1 262 252 309 233 358 211 267 287 40 226 273 281 271 264 258
354 348 340 335 335 332 325 295 83 103 63 210 58 27 347 328 310 85 331 96 82 63 29 38 42 64 59 131 247 247 261 256 264 277 202 263 260 278 275 259 269 271 271 260 256
346 341 337 334 330 330 8 79 29 14 42 74 200 135 305 302 341 22 5 75 55 54 108 7 9 225 214 200 145 174 228 263 269 268 290 269 272 269 275 250 247 256 260 255 250
340 335 330 330 330 355 103 90 155 186 352 102 234 279 249 264 6 318 104 109 86 182 109 19 246 238 151 177 225 246 272 273 286 277 234 278 276 266 254 262 251 250 254 251 252
339 334 331 330 332 62 75 90 323 161 88 316 215 236 284 137 219 275 133 119 152 151 192 187 259 77 140 209 222 246 242 258 263 308 268 283 281 241 244 251 259 250 247 259 258
336 331 335 337 91 305 50 339 325 150 75 330 352 1 69 115 54 5 174 115 155 222 176 244 290 200 228 257 208 258 233 250 267 296 280 1 296 262 261 259 252 256 245 246 265
335 328 337 34 147 81 284 311 210 68 58 347 356 282 327 78 308 359 257 86 225 193 148 261 268 220 226 232 156 245 257 227 234 229 308 233 247 284 356 294 278 269 280 258 254
341 337 344 28 54 22 331 353 48 49 133 339 346 352 9 14 3 331 31 309 248 253 240 258 302 253 248 279 197 352 352 27 59 166 254 227 201 277 287 153 330 294 289 283 337
35 67 68 38 323 319 332 50 40 90 334 341 337 358 350 337 11 22 8 18 15 344 4 319 262 290 287 339 15 121 30 321 277 195 256 325 209 250 282 317 337 335 360 359 1
11 4 48 67 340 342 56 57 73 142 336 326 332 320 78 10 15 348 20 16 29 15 305 348 330 351 42 41 260 282 171 211 282 284 291 276 253 256 259 332 41 30 357 352 352
353 353 41 341 346 83 75 53 144 93 290 333 322 51 3 2 21 5 44 42 34 10 4 331 262 315 311 356 323 3 5 333 287 283 274 264 264 281 277 359 3 353 351 344 340
74 47 7 340 345 61 73 126 121 41 323 346 45 53 353 349 26 24 345 6 33 13 325 331 296 246 27 339 356 47 330 320 274 282 277 269 274 276 311 350 344 339 331 338 338
54 54 286 342 42 50 92 116 105 9 34 34 30 349 41 23 343 285 290 29 21 344 355 317 226 276 335 326 312 305 291 291 303 270 279 285 275 117 328 318 320 320 324 330 326
79 51 325 344 53 32 73 30 338 359 15 14 77 67 56 28 314 286 357 77 20 351 24 324 288 288 292 277 271 270 25 355 324 304 289 270 271 281 295 314 313 310 316 319 313
74 340 338 41 88 32 347 45 54 21 33 21 56 52 12 41 347 299 5 147 37 11 1 332 298 313 296 57 55 350 316 309 300 277 274 285 292 309 303 304 308 322 318 319 324
78 43 353 42 27 98 67 23 55 31 62 12 43 61 38 4 344 299 312 329 341 320 315 313 242 230 261 283 312 303 299 295 274 278 277 274 284 297 299 308 333 323 318 316 313
31 91 190 12 21 62 52 24 33 25 10 24 73 80 68 325 309 255 334 316 267 283 282 250 259 276 279 288 289 286 294 283 287 274 267 277 281 286 313 311 300 298 300 306 305
100 122 30 93 19 76 12 12 48 1 24 357 81 346 162 223 234 288 290 270 269 262 233 242 274 291 289 284 279 290 277 278 273 278 287 281 292 324 291 289 296 304 315 314 310
356 72 101 337 48 91 158 130 119 101 285 170 135 292 279 274 270 264 256 263 260 268 278 263 269 276 279 281 298 278 265 276 301 295 287 300 304 319 314 305 311 310 301 315 317